Walhalla, ND

3:58 PM CDT on September 27, 2016 (GMT -0500)
Walhalla

Weather History for K96D - September, 2013

Change the Weather History Date:

Saturday, September 14, 2013

  Actual Average (KGAF) Record (KGAF)
Temperature  
Mean Temperature 62 °F -  
Max Temperature 73 °F 70 °F 88 °F (1968)
Min Temperature 50 °F 44 °F 25 °F (1956)
Degree Days  
Heating Degree Days 4    
Growing Degree Days 12 (Base 50)    
Moisture  
Dew Point 52 °F    
Average Humidity 64    
Maximum Humidity 100    
Minimum Humidity 49    
Precipitation  
Precipitation 0.00 in - - ()
Sea Level Pressure  
Sea Level Pressure 29.86 in    
Wind  
Wind Speed 14 mph (NW)    
Max Wind Speed 28 mph    
Max Gust Speed 32 mph    
Visibility 10 miles    
Events Rain    
Averages and records for this station are not official NWS values.
T = Trace of Precipitation, MM = Missing Value Source: NWS Daily Summary

Daily Weather History Graph

Daily Weather History Graph

Search for Another Location

Airport or City:

Trip Planner

Search our weather history database for the weather conditions in past years. The results will help you decide how hot, cold, wet, or windy it might be!

Date:

Astronomy

Sep. 14, 2013 Rise Set
Actual Time 7:07 AM CDT 7:45 PM CDT
Civil Twilight 6:35 AM CDT 8:17 PM CDT
Nautical Twilight 5:57 AM CDT 8:55 PM CDT
Astronomical Twilight 5:17 AM CDT 9:35 PM CDT
Moon 4:47 PM CDT (9/14) 1:19 AM CDT (9/14)
Length of Visible Light 13h 42m
Length of Day
12h 38m
Waxing Gibbous, 72% of the Moon is Illuminated
Sep 14
Waxing Gibbous
Sep 19
Full
Sep 26
Last Quarter
Oct 4
New
Oct 11
First Quarter

Hourly Weather History & Observations

Time (CDT) Temp. Dew Point Humidity Pressure Visibility Wind Dir Wind Speed Gust Speed Precip Events Conditions
12:15 AM 68.0 °F 50.0 °F 52% 29.82 in 10.0 mi SW 19.6 mph 29.9 mph N/A   Clear
12:35 AM 68.0 °F 48.2 °F 49% 29.82 in 10.0 mi SW 18.4 mph 29.9 mph N/A   Clear
12:55 AM 68.0 °F 48.2 °F 49% 29.82 in 10.0 mi SW 19.6 mph 29.9 mph N/A   Clear
1:15 AM 68.0 °F 48.2 °F 49% 29.81 in 10.0 mi SW 19.6 mph 27.6 mph N/A   Clear
1:35 AM 68.0 °F 48.2 °F 49% 29.81 in 10.0 mi SW 19.6 mph 32.2 mph N/A   Clear
1:55 AM 68.0 °F 48.2 °F 49% 29.80 in 10.0 mi SW 18.4 mph 28.8 mph N/A   Clear
2:15 AM 68.0 °F 48.2 °F 49% 29.80 in 10.0 mi SW 19.6 mph 26.5 mph N/A   Clear
2:35 AM 68.0 °F 48.2 °F 49% 29.80 in 10.0 mi SW 15.0 mph 26.5 mph N/A   Clear
2:55 AM 66.2 °F 48.2 °F 52% 29.79 in 10.0 mi SW 13.8 mph 21.9 mph N/A   Clear
3:15 AM 66.2 °F 48.2 °F 52% 29.79 in 10.0 mi SW 13.8 mph 23.0 mph N/A   Partly Cloudy
3:35 AM 66.2 °F 46.4 °F 49% 29.79 in 10.0 mi SW 11.5 mph 18.4 mph N/A   Partly Cloudy
3:55 AM 66.2 °F 48.2 °F 52% 29.78 in 10.0 mi SW 12.7 mph 21.9 mph N/A   Partly Cloudy
4:15 AM 66.2 °F 48.2 °F 52% 29.78 in 10.0 mi SW 11.5 mph 20.7 mph N/A   Clear
4:35 AM 66.2 °F 48.2 °F 52% 29.77 in 10.0 mi SW 13.8 mph 20.7 mph N/A   Clear
4:55 AM 66.2 °F 48.2 °F 52% 29.77 in 10.0 mi SW 12.7 mph 18.4 mph N/A   Clear
5:15 AM 66.2 °F 48.2 °F 52% 29.77 in 10.0 mi WSW 11.5 mph 21.9 mph N/A   Clear
5:35 AM 66.2 °F 48.2 °F 52% 29.77 in 10.0 mi WSW 12.7 mph 19.6 mph N/A   Clear
5:55 AM 64.4 °F 48.2 °F 56% 29.77 in 10.0 mi SW 11.5 mph 18.4 mph N/A   Clear
6:15 AM 64.4 °F 50.0 °F 59% 29.77 in 10.0 mi WSW 9.2 mph 17.3 mph N/A   Clear
6:35 AM 64.4 °F 50.0 °F 59% 29.76 in 10.0 mi WSW 8.1 mph 18.4 mph N/A   Clear
6:55 AM 64.4 °F 50.0 °F 59% 29.76 in 10.0 mi WSW 10.4 mph 16.1 mph N/A   Clear
7:15 AM 64.4 °F 50.0 °F 59% 29.76 in 10.0 mi WSW 9.2 mph 17.3 mph N/A   Clear
7:35 AM 64.4 °F 50.0 °F 59% 29.77 in 10.0 mi West 8.1 mph - N/A   Clear
7:55 AM 64.4 °F 50.0 °F 59% 29.77 in 10.0 mi WSW 6.9 mph - N/A   Clear
8:15 AM 64.4 °F 50.0 °F 59% 29.79 in 10.0 mi North 15.0 mph - N/A   Clear
8:35 AM 64.4 °F 50.0 °F 59% 29.78 in 10.0 mi West 12.7 mph 17.3 mph N/A   Clear
8:55 AM 66.2 °F 51.8 °F 60% 29.80 in 10.0 mi NNW 6.9 mph - N/A   Scattered Clouds
9:15 AM 66.2 °F 51.8 °F 60% 29.80 in 10.0 mi North 4.6 mph - N/A   Scattered Clouds
9:35 AM 66.2 °F 53.6 °F 64% 29.80 in 10.0 mi West 5.8 mph - N/A   Partly Cloudy
9:55 AM 66.2 °F 53.6 °F 64% 29.80 in 10.0 mi West 4.6 mph - N/A   Clear
10:15 AM 68.0 °F 53.6 °F 60% 29.80 in 10.0 mi West 4.6 mph - N/A   Clear
10:35 AM 68.0 °F 53.6 °F 60% 29.80 in 10.0 mi NW 8.1 mph - N/A   Clear
10:55 AM 68.0 °F 53.6 °F 60% 29.80 in 10.0 mi NW 10.4 mph 17.3 mph N/A   Clear
11:15 AM 68.0 °F 55.4 °F 64% 29.80 in 10.0 mi NNW 9.2 mph - N/A   Clear
11:35 AM 69.8 °F 55.4 °F 60% 29.80 in 10.0 mi NNW 9.2 mph - N/A   Clear
11:55 AM 71.6 °F 57.2 °F 60% 29.80 in 10.0 mi North 12.7 mph 17.3 mph N/A   Clear
12:15 PM 71.6 °F 57.2 °F 60% 29.80 in 10.0 mi North 12.7 mph 18.4 mph N/A   Clear
12:35 PM 73.4 °F 57.2 °F 57% 29.80 in 10.0 mi NNE 13.8 mph - N/A   Clear
12:55 PM 73.4 °F 57.2 °F 57% 29.80 in 10.0 mi NNE 15.0 mph 20.7 mph N/A   Scattered Clouds
1:15 PM 73.4 °F 55.4 °F 53% 29.82 in 10.0 mi NNE 19.6 mph 26.5 mph N/A   Partly Cloudy
1:35 PM 73.4 °F 57.2 °F 57% 29.83 in 10.0 mi NE 18.4 mph 27.6 mph N/A   Partly Cloudy
1:55 PM 71.6 °F 57.2 °F 60% 29.84 in 10.0 mi North 27.6 mph 32.2 mph N/A   Mostly Cloudy
2:15 PM 68.0 °F 57.2 °F 68% 29.85 in 10.0 mi North 20.7 mph 27.6 mph N/A   Mostly Cloudy
2:35 PM 66.2 °F 59.0 °F 78% 29.86 in 10.0 mi North 18.4 mph 27.6 mph N/A   Scattered Clouds
2:55 PM 64.4 °F 59.0 °F 83% 29.86 in 10.0 mi NNE 18.4 mph 23.0 mph N/A   Mostly Cloudy
3:15 PM 60.8 °F 60.8 °F 100% 29.87 in 10.0 mi North 13.8 mph - N/A Rain Light Rain
3:35 PM 60.8 °F 60.8 °F 100% 29.88 in 10.0 mi North 17.3 mph - N/A Rain Light Rain
3:55 PM 60.8 °F 60.8 °F 100% 29.89 in 10.0 mi NNE 12.7 mph 19.6 mph N/A Rain Light Rain
4:15 PM 62.6 °F 62.6 °F 100% 29.89 in 10.0 mi NNE 11.5 mph - N/A   Scattered Clouds
4:35 PM 64.4 °F 60.8 °F 88% 29.90 in 10.0 mi NNE 10.4 mph - N/A   Scattered Clouds
4:55 PM 64.4 °F 59.0 °F 83% 29.90 in 10.0 mi NE 6.9 mph - N/A   Mostly Cloudy
5:15 PM 64.4 °F 59.0 °F 83% 29.91 in 10.0 mi NNE 10.4 mph - N/A   Scattered Clouds
5:35 PM 66.2 °F 57.2 °F 73% 29.91 in 10.0 mi NNE 10.4 mph - N/A   Clear
5:55 PM 66.2 °F 55.4 °F 68% 29.91 in 10.0 mi NE 10.4 mph - N/A   Clear
6:15 PM 68.0 °F 53.6 °F 60% 29.92 in 10.0 mi NE 8.1 mph - N/A   Clear
6:35 PM 66.2 °F 51.8 °F 60% 29.92 in 10.0 mi NE 8.1 mph - N/A   Partly Cloudy
6:55 PM 66.2 °F 48.2 °F 52% 29.93 in 10.0 mi NE 11.5 mph - N/A   Clear
7:15 PM 64.4 °F 48.2 °F 56% 29.94 in 10.0 mi NNE 9.2 mph - N/A   Clear
7:35 PM 64.4 °F 50.0 °F 59% 29.95 in 10.0 mi NNE 16.1 mph 24.2 mph N/A   Mostly Cloudy
7:55 PM 64.4 °F 50.0 °F 59% 29.97 in 10.0 mi North 17.3 mph 23.0 mph N/A   Overcast
8:15 PM 60.8 °F 48.2 °F 63% 29.98 in 10.0 mi North 19.6 mph 28.8 mph N/A   Overcast
8:35 PM 59.0 °F 48.2 °F 67% 30.00 in 10.0 mi North 20.7 mph 29.9 mph N/A   Overcast
8:55 PM 57.2 °F 46.4 °F 67% 30.01 in 10.0 mi North 18.4 mph 23.0 mph N/A   Overcast
9:15 PM 55.4 °F 46.4 °F 72% 30.03 in 10.0 mi North 12.7 mph - N/A   Overcast
9:35 PM 55.4 °F 46.4 °F 72% 30.04 in 10.0 mi North 13.8 mph 18.4 mph N/A   Scattered Clouds
9:55 PM 55.4 °F 46.4 °F 72% 30.05 in 10.0 mi NNW 11.5 mph - N/A   Scattered Clouds
10:15 PM 53.6 °F 46.4 °F 77% 30.05 in 10.0 mi NNW 12.7 mph - N/A   Partly Cloudy
10:35 PM 53.6 °F 46.4 °F 77% 30.07 in 10.0 mi NNW 13.8 mph - N/A   Mostly Cloudy
10:55 PM 51.8 °F 46.4 °F 82% 30.07 in 10.0 mi NNW 11.5 mph - N/A   Scattered Clouds
11:15 PM 50.0 °F 46.4 °F 87% 30.08 in 10.0 mi NNW 13.8 mph - N/A   Clear
11:35 PM 50.0 °F 46.4 °F 87% 30.09 in 10.0 mi North 12.7 mph 18.4 mph N/A   Clear
11:55 PM 50.0 °F 46.4 °F 87% 30.09 in 10.0 mi North 12.7 mph 19.6 mph N/A   Clear